Location: Jackson Park
(37.2862°N, 79.9123°W)
Time: 14:54:21
(UTC+00:00)

Vanguard 2 - Pass Details

Date: 15 May 2026
Orbit: 553 x 2894 km, 32.9° (Epoch: 6 June)

Event Time Altitude Azimuth Distance (km) Brightness Sun altitude
Rises 14:52:20 0° 274° (W) 5,591 11.6 53.7°
Reaches altitude 10° 15:00:43 10° 242° (WSW) 3,818 11.0 55.3°
Maximum altitude 15:02:23 11° 232° (SW) 3,606 10.9 55.6°
Drops below altitude 10° 15:03:57 10° 222° (SW) 3,486 10.9 55.9°
Sets 15:09:48 0° 184° (S) 3,830 11.3 56.9°
